Location: Faillefeu
(44.2000°N, 6.4667°E)
Time: 01:26:03
(UTC+00:00)

IRS-P3 - Pass Details

Date: 09 December 2025
Orbit: 810 x 816 km, 99.0° (Epoch: 10 April)

Event Time Altitude Azimuth Distance (km) Brightness Sun altitude
Rises 16:46:50 0° 144° (SE) 3,324 7.2 -9.0°
Reaches altitude 10° 16:49:15 10° 138° (SE) 2,396 6.4 -9.4°
Maximum altitude 16:54:13 43° 68° (ENE) 1,132 4.4 -10.2°
Drops below altitude 10° 16:59:13 10° 358° (N) 2,407 6.4 -11.1°
Sets 17:01:39 0° 352° (N) 3,342 7.2 -11.5°
